Starlink 32348

operational
NORAD ID: 61631 Int'l Des: 2024-191 Owner: SPXS Country: US Constellation: starlink
LEOCIRCULAR

About Starlink 32348

Description loading...

Live Position

Loading 3D Globe...

Upcoming Passes

Altitude History

Altitude vs Time

uPlot chart will show altitude changes over time

Two-Line Element Set

1 61631U 24191L 25350.17989367 .00004029 00000-0 15584-3 0 9990
2 61631 43.0032 269.6800 0001164 295.6665 64.4067 15.27578977 64727
Epoch: Dec 16, 2025 • Age: 22 hours

Current Status

Altitude 486.9 km
Velocity 7.63 km/s
Sub-Earth Point 43.11°N, 128.36°W
Launch Date Oct 23, 2024
Age 1.1 years
Type internet

Technical Details

Classification Payload
Mass 730.00 kg
Dry Mass 700.00 kg
Total Mass 730.00 kg
Length 0.30 m
Diameter 4.10 m
Span 29.00 m
Shape Box + pan
Manufacturer SPXS
Bus Type Starlink V2M
Phase Status In Orbit
Owner/State SPXS/US

Large Constellations

Loading constellations...